Location: Taipo
(41.0000°S, 175.9500°E)
Time: 02:32:27
(UTC+00:00)

Cosmos 407 Rocket - Pass Details

Date: 18 April 2024
Orbit: 742 x 784 km, 74.0° (Epoch: 22 May)

Event Time Altitude Azimuth Distance (km) Brightness Sun altitude
Exits shadow 17:29:08 - 209° (SSW) 2,965 6.3 -16.0°
Reaches altitude 10° 17:30:54 10° 214° (SW) 2,306 5.6 -15.7°
Maximum altitude 17:35:47 41° 282° (WNW) 1,106 3.9 -14.8°
Drops below altitude 10° 17:40:39 10° 351° (N) 2,302 5.9 -13.8°
Sets 17:43:08 0° 358° (N) 3,227 6.8 -13.4°
